Back to catalog

ICEYE-X71

AliveScienceSSO
NORAD 68494·PAYLOAD·🇫🇮 Finland

Launched Mar 30, 2026 from Vandenberg Space Force Base

Loading…

Next Passes (next 24 hours)

TLE

FreshSource: Space-Track

Epoch: Sep 14, 2026, 13:58 UTC

1 68494U 26067CG  26257.58250323  .00008056  00000-0  68014-3 0  9993
2 68494  97.7725 214.7010 0004685  75.9139 284.2604 14.98374223 25075

Track ICEYE-X71 in real time with AllMySat

Download on the App Store